User: anonymous   Login
Location: Waning Moon II Observatory
(30.3730°N, 89.7620°W)
Time: 22:30:27
(UTC-06:00)
Language:

Meteor 1-21 - Orbit

View from above orbital plane
View from above orbital plane
View from above satellite
View from above satellite

Ground track
Ground track

The orbit data is extracted from the following two-line orbital elements,

1 07714U 75023A   16041.24285098  .00000009  00000-0 -18944-5 0  9997
2 07714  81.2124 311.6347 0031865 205.6327 154.3264 14.07919111415821
Epoch (UTC): 10 February 2016 05:49:42
Eccentricity: 0.0031865
inclination: 81.2124°
perigee height: 843 km
apogee height: 889 km
right ascension of ascending node: 311.6347°
argument of perigee: 205.6327°
revolutions per day: 14.07919111
mean anomaly at epoch: 154.3264°
orbit number at epoch: 41582

The dashed part of the orbit path shows where the satellite is in the earth's shadow,  

DLR